DW8534 Weather Reports


time (UTC)temp
C
wind
direction
speed
KPH
gust
KPH
rain 1hr
cm
rain 24hr
cm
rain mn
cm
humidity
%
barometer
mb
20260509161523 27 250 3.2 0.0 0.00 0.00 0.00 59 1006.2
20260509160019 26 259 1.6 0.0 0.00 0.00 0.00 66 1006.2
20260509154515 26 263 1.6 0.0 0.00 0.00 0.00 69 1006.2
20260509153015 25 252 3.2 0.0 0.00 0.00 0.00 70 1006.2
20260509151507 24 5 1.6 0.0 0.00 0.00 0.00 74 1006.2
20260509150004 23 247 1.6 0.0 0.00 0.00 0.00 82 1006.0
20260509144600 22 295 1.6 0.0 0.00 0.00 0.00 83 1005.8
20260509143059 22 242 0.0 0.0 0.00 0.00 0.00 85 1005.9
20260509141554 22 256 0.0 0.0 0.00 0.00 0.00 88 1006.1
20260509140051 21 246 1.6 0.0 0.00 0.00 0.00 89 1006.1
20260509134549 21 248 0.0 0.0 0.00 0.00 0.00 91 1005.8
20260509133048 21 248 1.6 0.0 0.00 0.00 0.00 92 1005.7
20260509131547 21 256 3.2 0.0 0.00 0.00 0.00 93 1005.6
20260509130056 20 182 0.0 0.0 0.00 0.00 0.00 94 1005.2
20260509124552 20 182 0.0 0.0 0.00 0.00 0.00 93 1005.2
20260509123046 20 182 0.0 0.0 0.00 0.00 0.00 93 1005.2
20260509121546 20 182 0.0 0.0 0.00 0.00 0.00 93 1005.3
20260509120045 20 182 1.6 0.0 0.00 0.00 0.00 93 1005.5
20260509114553 20 265 0.0 0.0 0.00 0.00 0.00 93 1005.6
20260509113053 20 265 0.0 0.0 0.00 0.00 0.00 93 1005.5
20260509111543 20 267 0.0 0.0 0.00 0.00 0.00 93 1005.3
20260509110042 21 267 1.6 0.0 0.00 0.00 0.00 93 1005.2
20260509104543 20 276 1.6 0.0 0.00 0.00 0.00 93 1005.1
20260509103052 20 271 3.2 0.0 0.00 0.00 0.00 93 1004.8
20260509101557 20 194 6.4 0.0 0.00 0.00 0.00 93 1003.2
20260509100041 20 184 6.4 0.0 0.00 0.00 0.00 93 1002.7
20260509094545 20 160 9.7 0.0 0.00 0.00 0.00 93 1002.7
20260509093040 20 146 9.7 0.0 0.00 0.00 0.00 93 1003.0
20260509091540 20 170 8.0 0.0 0.00 0.00 0.00 93 1002.9
20260509090047 20 165 6.4 0.0 0.00 0.00 0.00 93 1003.4
20260509084542 20 146 3.2 0.0 0.00 0.00 0.00 93 1003.8
20260509083050 20 175 1.6 0.0 0.00 0.00 0.00 93 1004.5
20260509081535 20 188 3.2 0.0 0.00 0.00 0.00 93 1005.4
20260509080036 20 191 6.4 0.0 0.00 0.00 0.00 93 1005.9
20260509074534 20 238 6.4 0.0 0.00 0.00 0.00 93 1006.9
20260509073037 20 233 3.2 0.0 0.00 0.00 0.00 93 1006.9
20260509071541 20 170 1.6 0.0 0.00 0.00 0.00 93 1006.8
20260509070032 20 149 0.0 0.0 0.00 0.00 0.00 93 1006.8
20260509064531 20 126 0.0 0.0 0.00 0.00 0.00 93 1006.9
20260509063033 20 123 0.0 0.0 0.00 0.00 0.00 93 1006.7
20260509061529 20 123 0.0 0.0 0.00 0.00 0.00 92 1006.8
20260509060027 20 123 0.0 0.0 0.00 0.00 0.00 92 1006.4
20260509054530 20 123 0.0 0.0 0.00 0.00 0.00 92 1005.9
20260509053033 20 123 1.6 0.0 0.00 0.00 0.00 91 1006.2
20260509051522 20 123 3.2 0.0 0.00 0.00 0.00 91 1005.9
20260509050022 21 123 3.2 0.0 0.00 0.00 0.05 90 1005.9
20260509044520 21 122 0.0 0.0 0.00 0.00 0.05 90 1006.4
20260509043020 21 122 1.6 0.0 0.00 0.00 0.05 90 1006.4
20260509041519 21 125 3.2 0.0 0.00 0.00 0.05 89 1006.0
20260509040027 21 126 3.2 0.0 0.00 0.00 0.05 88 1005.9
20260509034518 21 127 3.2 0.0 0.00 0.00 0.05 88 1005.9
20260509033018 21 127 1.6 0.0 0.00 0.00 0.05 88 1005.9
20260509031517 21 128 3.2 0.0 0.00 0.00 0.05 88 1005.6
20260509030031 21 146 4.8 0.0 0.00 0.00 0.05 88 1005.2
20260509024516 22 167 1.6 0.0 0.00 0.00 0.05 87 1005.3
20260509023016 22 167 1.6 0.0 0.00 0.00 0.05 87 1005.3
20260509021515 22 167 1.6 0.0 0.00 0.00 0.05 86 1005.0
20260509020014 22 168 1.6 0.0 0.00 0.00 0.05 86 1004.9
20260509014515 22 168 1.6 0.0 0.00 0.00 0.05 86 1004.9
20260509013014 22 168 1.6 0.0 0.00 0.00 0.05 86 1004.8
20260509011514 22 169 3.2 0.0 0.00 0.00 0.05 86 1004.8
20260509010013 22 169 1.6 0.0 0.00 0.00 0.05 85 1004.5
20260509004517 22 171 4.8 0.0 0.00 0.00 0.05 85 1004.3
20260509003013 22 105 3.2 0.0 0.00 0.00 0.05 84 1004.3
20260509001513 22 110 4.8 0.0 0.00 0.00 0.05 84 1004.3
20260509000010 22 121 3.2 0.0 0.00 0.00 0.05 83 1004.3
20260508234513 22 112 3.2 0.0 0.00 0.00 0.05 83 1004.4
20260508233009 22 115 3.2 0.0 0.00 0.00 0.05 83 1004.4
20260508231508 22 115 6.4 0.0 0.00 0.00 0.05 82 1004.4
20260508230007 22 150 8.0 0.0 0.00 0.00 0.05 81 1004.4
20260508224506 22 130 8.0 0.0 0.00 0.00 0.05 81 1004.4
20260508223005 22 131 8.0 0.0 0.00 0.00 0.05 82 1004.5
20260508221503 22 178 6.4 0.0 0.00 0.00 0.05 81 1004.9
20260508220001 22 134 4.8 0.0 0.00 0.00 0.05 84 1005.0
20260508214601 22 98 1.6 0.0 0.00 0.00 0.05 84 1005.4
20260508213058 21 92 6.4 0.0 0.00 0.00 0.05 86 1005.2
20260508211557 20 123 11.3 0.0 0.00 0.00 0.05 86 1004.9
20260508210059 20 117 11.3 0.0 0.00 0.00 0.05 88 1005.0
20260508204556 20 110 6.4 0.0 0.00 0.00 0.05 85 1005.8
20260508203107 20 168 4.8 0.0 0.00 0.00 0.00 81 1006.7
20260508201600 21 168 4.8 0.0 0.00 0.00 0.00 79 1007.1
20260508200053 21 187 4.8 0.0 0.00 0.00 0.00 76 1007.3
20260508194551 21 159 6.4 0.0 0.00 0.00 0.00 77 1007.0
20260508193050 21 144 6.4 0.0 0.00 0.00 0.00 78 1007.1
20260508191551 20 160 6.4 0.0 0.00 0.00 0.00 77 1007.2
20260508190048 20 136 8.0 0.0 0.00 0.00 0.00 75 1007.6
20260508184549 20 153 8.0 0.0 0.00 0.00 0.00 76 1007.7
20260508183048 20 159 6.4 0.0 0.00 0.00 0.00 77 1008.1
20260508181546 21 144 8.0 0.0 0.00 0.00 0.00 74 1008.3
20260508180046 21 173 6.4 0.0 0.00 0.00 0.00 75 1008.2
20260508174554 21 105 8.0 0.0 0.00 0.00 0.00 76 1008.3
20260508173044 20 134 6.4 0.0 0.00 0.00 0.00 76 1008.8
20260508171543 20 132 8.0 0.0 0.00 0.00 0.00 74 1008.8
20260508170042 21 123 9.7 0.0 0.00 0.00 0.00 73 1009.1
20260508164540 20 70 11.3 0.0 0.00 0.00 0.00 75 1009.0
20260508163038 20 105 11.3 0.0 0.00 0.00 0.00 76 1009.3